{"data":{"norad_id":85061,"intl_designator":"","name":"UNKNOWN","alt_names":[],"object_type":"UNKNOWN","status":"UNKNOWN","operator":null,"country":null,"launch_date":null,"launch_site_code":null,"launch_vehicle":null,"mission":null,"orbit_class":"UNKNOWN","rcs_meters":null,"size_class":null,"mass_kg":null,"dimensions":null,"purposes":[],"wikipedia_slug":null,"has_3d_model":false,"image_url":null,"decayed_at":null,"tle_current":{"epoch":"2026-05-23T23:22:20.813664Z","epoch_age_seconds":164548,"freshness":"FRESH","line1":"1 85061U          26143.97385201  .00003166  00000+0  12661-1 0  9993","line2":"2 85061 102.4046 147.8309 0254746 228.9965 157.0041 12.78188893576506","mean_motion":12.78188893,"eccentricity":0.0254746,"inclination_deg":102.4046,"raan_deg":147.8309,"arg_perigee_deg":228.9965,"mean_anomaly_deg":157.0041,"bstar":0.012661,"rev_number":57650,"period_min":112.65940487248,"perigee_km":1151.9208283444,"apogee_km":1545.6000719104,"semimajor_km":7726.8974501274,"source":"CELESTRAK","updated_at":"2026-05-25T13:38:11.430157Z"}}}